Zurück zum Katalog

SL-14 R/B

AktivPO
NORAD 18313·ROCKET BODY·🇷🇺 Russia

Gestartet Aug 18, 1987 von Plesetsk Cosmodrome

Loading…

Nächste Überflüge (nächste 24 Stunden)

TLE

AktuellSource: Space-Track

Epoche: Sep 14, 2026, 22:36 UTC

1 18313U 87068B   26257.94186038  .00000014  00000-0 -67841-6 0  9994
2 18313  82.5555 230.6926 0010045 173.6236 186.5054 13.84310360974192

Verfolge SL-14 R/B in Echtzeit mit AllMySat

Download on the App Store